TimeCDT,TemperatureF,Dew PointF,Humidity,Sea Level PressureIn,VisibilityMPH,Wind Direction,Wind SpeedMPH,Gust SpeedMPH,PrecipitationIn,Events,Conditions,WindDirDegrees,DateUTC
12:53 AM,60.1,55.0,83,29.84,10.0,South,5.8,-,N/A,,Clear,170,2012-10-17 05:53:00
1:53 AM,59.0,54.0,83,29.83,10.0,South,6.9,-,N/A,,Clear,180,2012-10-17 06:53:00
2:53 AM,57.0,53.1,87,29.83,10.0,South,5.8,-,N/A,,Clear,170,2012-10-17 07:53:00
3:53 AM,55.9,53.1,90,29.82,10.0,South,5.8,-,N/A,,Partly Cloudy,170,2012-10-17 08:53:00
4:53 AM,59.0,54.0,83,29.81,10.0,SSE,6.9,-,N/A,,Scattered Clouds,160,2012-10-17 09:53:00
5:53 AM,57.0,53.1,87,29.82,10.0,South,5.8,-,N/A,,Clear,170,2012-10-17 10:53:00
6:53 AM,57.9,53.1,84,29.81,10.0,SSE,10.4,-,N/A,,Clear,160,2012-10-17 11:53:00
7:53 AM,59.0,53.1,81,29.78,10.0,South,11.5,-,N/A,,Clear,170,2012-10-17 12:53:00
8:53 AM,64.0,55.0,73,29.78,10.0,South,12.7,-,N/A,,Clear,180,2012-10-17 13:53:00
9:53 AM,69.1,59.0,70,29.78,10.0,South,15.0,-,N/A,,Clear,190,2012-10-17 14:53:00
10:53 AM,73.0,63.0,71,29.78,10.0,South,18.4,-,N/A,,Clear,190,2012-10-17 15:53:00
11:53 AM,75.9,64.0,67,29.75,10.0,South,20.7,-,N/A,,Partly Cloudy,180,2012-10-17 16:53:00
12:53 PM,78.1,62.1,58,29.72,10.0,South,20.7,28.8,N/A,,Clear,180,2012-10-17 17:53:00
1:53 PM,80.1,64.0,58,29.68,10.0,South,19.6,-,N/A,,Clear,190,2012-10-17 18:53:00
2:53 PM,81.0,64.9,58,29.65,10.0,South,18.4,25.3,N/A,,Partly Cloudy,190,2012-10-17 19:53:00
3:53 PM,79.0,64.9,62,29.65,10.0,South,13.8,-,N/A,,Overcast,190,2012-10-17 20:53:00
4:53 PM,80.1,66.0,62,29.63,10.0,South,18.4,-,N/A,,Scattered Clouds,190,2012-10-17 21:53:00
5:53 PM,78.8,66.2,65,29.60,10.0,South,13.8,-,N/A,,Overcast,180,2012-10-17 22:53:00
6:53 PM,75.9,66.9,74,29.60,10.0,South,12.7,-,N/A,,Mostly Cloudy,170,2012-10-17 23:53:00
7:53 PM,75.0,66.9,76,29.60,10.0,South,17.3,-,N/A,,Mostly Cloudy,170,2012-10-18 00:53:00
8:53 PM,75.0,66.9,76,29.56,10.0,North,-9999.0,-,N/A,,Scattered Clouds,0,2012-10-18 01:53:00
9:17 PM,75.2,66.2,73,29.54,10.0,South,18.4,27.6,N/A,Thunderstorm,Mostly Cloudy,170,2012-10-18 02:17:00
9:35 PM,73.4,69.8,88,29.60,5.0,West,11.5,23.0,0.04,Rain-Thunderstorm,Thunderstorms and Rain,260,2012-10-18 02:35:00
9:48 PM,71.6,68.0,88,29.61,10.0,SSW,25.3,40.3,0.04,Rain-Thunderstorm,Light Thunderstorms and Rain,210,2012-10-18 02:48:00
9:53 PM,71.1,64.9,81,29.63,10.0,SSW,25.3,34.5,0.04,Rain-Thunderstorm,Light Thunderstorms and Rain,210,2012-10-18 02:53:00
10:15 PM,69.8,64.4,83,29.61,10.0,WSW,11.5,-,0.00,Thunderstorm,Mostly Cloudy,240,2012-10-18 03:15:00
10:29 PM,69.8,64.4,83,29.65,6.0,West,24.2,35.7,0.03,Rain-Thunderstorm,Thunderstorms and Rain,260,2012-10-18 03:29:00
10:53 PM,66.9,62.1,84,29.65,10.0,SW,12.7,-,0.07,Rain-Thunderstorm,Light Rain,230,2012-10-18 03:53:00
11:33 PM,66.2,62.6,88,29.67,10.0,West,6.9,-,0.00,Rain,Light Rain,260,2012-10-18 04:33:00
11:53 PM,68.0,64.9,90,29.70,10.0,WNW,10.4,-,0.00,,Overcast,300,2012-10-18 04:53:00